QPF
0.00 0.00 0.00 0.00 0.00 0.00 0.00 0.00 0.00 0.00 0.00 0.00 0.01 0.02 0.04 0.06 0.10 0.10 0.09 0.08 0.07 0.05 0.03 0.02 0.01 0.00 0.00 0.00 0.00 0.00 0.00 0.00 0.00 0.00 0.00 0.00 0.00 0.00 0.00 0.00 0.00 0.00 0.00 0.00
0.00 0.00 0.00 0.00 0.00 0.00 0.00 0.00 0.00 0.00 0.00 0.00 0.01 0.02 0.03 0.06 0.10 0.10 0.08 0.07 0.05 0.03 0.02 0.01 0.00 0.00 0.00 0.00 0.00 0.00 0.00 0.00 0.00 0.00 0.00 0.00 0.00 0.00 0.00 0.00 0.00 0.00 0.00 0.00
0.00 0.00 0.00 0.00 0.00 0.00 0.00 0.00 0.00 0.00 0.00 0.01 0.01 0.02 0.02 0.03 0.04 0.05 0.04 0.04 0.03 0.03 0.02 0.01 0.01 0.00 0.00 0.00 0.00 0.00 0.00 0.00 0.00 0.00 0.00 0.00 0.00 0.00 0.00 0.00 0.00 0.00 0.00 0.00
0.00 0.00 0.00 0.00 0.00 0.00 0.00 0.00 0.00 0.00 0.00 0.00 0.01 0.02 0.01 0.02 0.04 0.03 0.02 0.03 0.03 0.02 0.01 0.00 0.00 0.00 0.00 0.00 0.00 0.00 0.00 0.00 0.00 0.00 0.00 0.00 0.00 0.00 0.00 0.00 0.00 0.00 0.00 0.00
0.00 0.00 0.00 0.00 0.00 0.00 0.00 0.00 0.00 0.00 0.00 0.00 0.00 0.00 0.00 0.00 0.01 0.01 0.01 0.01 0.01 0.01 0.00 0.00 0.00 0.00 0.00 0.00 0.00 0.00 0.01 0.01 0.00 0.00 0.00 0.00 0.00 0.00 0.00 0.00 0.00 0.00 0.00 0.00
0.00 0.00 0.00 0.00 0.00 0.00 0.00 0.00 0.00 0.00 0.00 0.01 0.00 0.00 0.00 0.00 0.00 0.00 0.00 0.00 0.00 0.00 0.00 0.00 0.00 0.00 0.00 0.00 0.00 0.00 0.01 0.01 0.00 0.00 0.00 0.00 0.00 0.00 0.00 0.00 0.00 0.00 0.00 0.00
0.00 0.00 0.00 0.00 0.00 0.00 0.00 0.00 0.00 0.00 0.00 0.01 0.00 0.00 0.00 0.00 0.00 0.00 0.00 0.00 0.00 0.00 0.00 0.00 0.00 0.00 0.00 0.00 0.00 0.00 0.00 0.00 0.00 0.00 0.00 0.00 0.00 0.00 0.00 0.00 0.00 0.00 0.00 0.00
0.00 0.00 0.00 0.00 0.00 0.00 0.00 0.00 0.00 0.00 0.00 0.00 0.00 0.00 0.00 0.00 0.00 0.00 0.00 0.00 0.00 0.00 0.00 0.00 0.00 0.00 0.00 0.00 0.00 0.00 0.00 0.00 0.00 0.00 0.00 0.00 0.00 0.00 0.00 0.00 0.00 0.00 0.00 0.00
0.00 0.00 0.00 0.00 0.00 0.00 0.00 0.00 0.00 0.00 0.00 0.00 0.00 0.00 0.00 0.00 0.00 0.00 0.00 0.00 0.00 0.00 0.00 0.00 0.00 0.00 0.00 0.00 0.00 0.00 0.00 0.00 0.00 0.00 0.00 0.00 0.00 0.00 0.00 0.00 0.00 0.00 0.00 0.00
0.00 0.00 0.00 0.00 0.00 0.00 0.00 0.00 0.00 0.00 0.00 0.00 0.00 0.00 0.00 0.00 0.00 0.00 0.00 0.00 0.00 0.00 0.00 0.00 0.00 0.00 0.00 0.00 0.00 0.00 0.00 0.00 0.00 0.00 0.00 0.00 0.00 0.00 0.00 0.00 0.00 0.00 0.00 0.00
0.00 0.00 0.00 0.00 0.00 0.00 0.00 0.00 0.00 0.00 0.00 0.00 0.00 0.00 0.00 0.00 0.00 0.00 0.00 0.00 0.00 0.00 0.00 0.00 0.00 0.00 0.00 0.00 0.00 0.00 0.00 0.00 0.00 0.00 0.00 0.00 0.00 0.00 0.00 0.00 0.00 0.00 0.00 0.00
0.00 0.00 0.00 0.00 0.00 0.00 0.00 0.00 0.00 0.00 0.00 0.00 0.00 0.00 0.00 0.00 0.00 0.00 0.00 0.00 0.00 0.00 0.00 0.00 0.00 0.00 0.00 0.00 0.00 0.00 0.00 0.00 0.00 0.00 0.00 0.00 0.00 0.00 0.00 0.00 0.00 0.00 0.00 0.00
0.00 0.00 0.00 0.00 0.00 0.00 0.00 0.00 0.00 0.00 0.00 0.00 0.00 0.00 0.00 0.00 0.00 0.00 0.00 0.00 0.00 0.00 0.00 0.00 0.00 0.00 0.00 0.00 0.00 0.00 0.00 0.00 0.00 0.00 0.00 0.00 0.00 0.00 0.00 0.00 0.00 0.00 0.00 0.00
0.00 0.00 0.00 0.00 0.00 0.00 0.00 0.00 0.00 0.00 0.00 0.00 0.00 0.00 0.00 0.00 0.00 0.00 0.00 0.00 0.00 0.00 0.00 0.00 0.00 0.00 0.00 0.00 0.00 0.00 0.00 0.00 0.00 0.00 0.00 0.00 0.00 0.00 0.00 0.00 0.00 0.00 0.00 0.00
0.00 0.00 0.00 0.00 0.00 0.00 0.00 0.00 0.00 0.00 0.00 0.00 0.00 0.00 0.00 0.00 0.00 0.00 0.00 0.00 0.00 0.00 0.00 0.00 0.00 0.00 0.00 0.00 0.00 0.00 0.00 0.00 0.00 0.00 0.00 0.00 0.00 0.00 0.00 0.00 0.00 0.00 0.00 0.00
0.00 0.00 0.00 0.00 0.00 0.00 0.00 0.00 0.00 0.00 0.00 0.00 0.00 0.00 0.00 0.00 0.00 0.00 0.00 0.00 0.00 0.00 0.00 0.00 0.00 0.00 0.00 0.00 0.00 0.00 0.00 0.00 0.00 0.00 0.00 0.00 0.00 0.00 0.00 0.00 0.00 0.00 0.00 0.00
0.00 0.00 0.00 0.00 0.00 0.00 0.00 0.00 0.00 0.00 0.00 0.00 0.00 0.00 0.00 0.00 0.00 0.00 0.00 0.00 0.00 0.00 0.00 0.00 0.00 0.00 0.00 0.00 0.00 0.00 0.00 0.00 0.00 0.00 0.00 0.00 0.00 0.00 0.00 0.00 0.00 0.00 0.00 0.00
0.00 0.01 0.00 0.00 0.00 0.00 0.00 0.00 0.00 0.00 0.00 0.00 0.00 0.00 0.00 0.00 0.00 0.00 0.00 0.00 0.00 0.00 0.00 0.00 0.00 0.00 0.00 0.00 0.00 0.00 0.00 0.00 0.00 0.00 0.00 0.00 0.00 0.00 0.00 0.00 0.00 0.00 0.00 0.00
0.01 0.01 0.01 0.01 0.01 0.00 0.00 0.00 0.00 0.00 0.00 0.00 0.00 0.00 0.00 0.00 0.00 0.00 0.00 0.00 0.00 0.00 0.00 0.00 0.00 0.00 0.00 0.00 0.00 0.00 0.00 0.00 0.00 0.00 0.00 0.00 0.00 0.00 0.00 0.00 0.00 0.00 0.00 0.00
0.02 0.02 0.02 0.02 0.01 0.00 0.00 0.00 0.00 0.00 0.00 0.00 0.00 0.00 0.00 0.00 0.00 0.00 0.00 0.00 0.00 0.00 0.00 0.00 0.00 0.00 0.00 0.00 0.00 0.00 0.00 0.00 0.00 0.00 0.00 0.00 0.00 0.00 0.00 0.00 0.00 0.00 0.00 0.00
0.01 0.02 0.02 0.02 0.01 0.00 0.00 0.00 0.00 0.00 0.00 0.00 0.00 0.00 0.00 0.00 0.00 0.00 0.00 0.00 0.00 0.00 0.00 0.00 0.00 0.00 0.00 0.00 0.00 0.00 0.00 0.00 0.00 0.00 0.00 0.00 0.00 0.00 0.00 0.00 0.00 0.00 0.00 0.00
0.00 0.00 0.01 0.01 0.01 0.00 0.00 0.00 0.00 0.00 0.00 0.00 0.00 0.00 0.00 0.00 0.00 0.00 0.00 0.00 0.00 0.00 0.00 0.00 0.00 0.00 0.00 0.00 0.00 0.00 0.00 0.00 0.00 0.00 0.00 0.00 0.00 0.00 0.00 0.00 0.00 0.00 0.00 0.00
0.00 0.00 0.00 0.00 0.00 0.00 0.00 0.00 0.00 0.00 0.00 0.00 0.00 0.00 0.00 0.00 0.00 0.00 0.00 0.00 0.00 0.00 0.00 0.00 0.00 0.00 0.00 0.00 0.00 0.00 0.00 0.00 0.00 0.00 0.00 0.00 0.00 0.00 0.00 0.00 0.00 0.00 0.00 0.00
0.00 0.00 0.00 0.00 0.00 0.00 0.00 0.00 0.00 0.00 0.00 0.00 0.00 0.00 0.00 0.00 0.00 0.00 0.00 0.00 0.00 0.00 0.00 0.00 0.00 0.00 0.00 0.00 0.00 0.00 0.00 0.00 0.00 0.00 0.00 0.00 0.00 0.00 0.00 0.00 0.00 0.00 0.00 0.00
0.00 0.00 0.00 0.00 0.00 0.00 0.00 0.00 0.00 0.00 0.00 0.00 0.00 0.00 0.00 0.00 0.00 0.00 0.00 0.00 0.00 0.00 0.00 0.00 0.00 0.00 0.00 0.00 0.00 0.00 0.00 0.00 0.00 0.00 0.00 0.00 0.00 0.00 0.00 0.00 0.00 0.00 0.00 0.00
0.00 0.00 0.00 0.00 0.00 0.00 0.00 0.00 0.00 0.00 0.00 0.00 0.00 0.00 0.00 0.00 0.00 0.00 0.00 0.00 0.00 0.00 0.00 0.00 0.00 0.00 0.00 0.00 0.00 0.00 0.00 0.00 0.00 0.00 0.00 0.00 0.00 0.00 0.00 0.00 0.00 0.00 0.00 0.00
MSLP
1012.57 1012.88 1013.08 1013.18 1013.23 1013.27 1013.35 1013.49 1013.70 1013.97 1014.28 1014.60 1014.91 1015.18 1015.41 1015.60 1015.76 1015.90 1016.02 1016.13 1016.22 1016.30 1016.37 1016.42 1016.46 1016.50 1016.57 1016.66 1016.79 1016.97 1017.17 1017.40 1017.62 1017.81 1017.97 1018.07 1018.11 1018.09 1018.02 1017.89 1017.73 1017.53 1017.31 1017.08
1012.53 1012.78 1012.93 1012.99 1013.03 1013.09 1013.21 1013.41 1013.69 1014.03 1014.40 1014.75 1015.08 1015.34 1015.55 1015.70 1015.82 1015.91 1015.98 1016.05 1016.10 1016.15 1016.17 1016.18 1016.19 1016.20 1016.24 1016.32 1016.46 1016.65 1016.90 1017.18 1017.46 1017.72 1017.92 1018.05 1018.10 1018.08 1017.99 1017.85 1017.67 1017.48 1017.28 1017.08
1012.40 1012.58 1012.67 1012.72 1012.76 1012.86 1013.04 1013.32 1013.67 1014.08 1014.49 1014.87 1015.17 1015.40 1015.54 1015.62 1015.66 1015.68 1015.69 1015.71 1015.74 1015.76 1015.78 1015.78 1015.78 1015.79 1015.83 1015.93 1016.08 1016.31 1016.60 1016.92 1017.25 1017.55 1017.79 1017.95 1018.01 1017.99 1017.89 1017.74 1017.57 1017.39 1017.22 1017.08
1012.21 1012.32 1012.36 1012.40 1012.47 1012.62 1012.88 1013.25 1013.69 1014.15 1014.59 1014.95 1015.22 1015.36 1015.41 1015.37 1015.30 1015.22 1015.17 1015.15 1015.15 1015.18 1015.21 1015.25 1015.28 1015.32 1015.40 1015.52 1015.71 1015.96 1016.29 1016.65 1017.01 1017.34 1017.61 1017.78 1017.86 1017.83 1017.74 1017.60 1017.44 1017.29 1017.16 1017.06
1012.01 1012.05 1012.06 1012.09 1012.20 1012.42 1012.77 1013.23 1013.74 1014.26 1014.71 1015.04 1015.22 1015.26 1015.17 1015.00 1014.80 1014.61 1014.47 1014.41 1014.41 1014.46 1014.54 1014.63 1014.73 1014.84 1014.97 1015.13 1015.36 1015.64 1015.99 1016.37 1016.75 1017.09 1017.38 1017.56 1017.65 1017.64 1017.56 1017.44 1017.30 1017.18 1017.08 1017.03
1011.84 1011.82 1011.80 1011.84 1011.99 1012.29 1012.72 1013.26 1013.85 1014.39 1014.83 1015.11 1015.20 1015.11 1014.87 1014.54 1014.20 1013.90 1013.68 1013.58 1013.58 1013.67 1013.82 1014.00 1014.18 1014.37 1014.57 1014.79 1015.05 1015.35 1015.71 1016.09 1016.47 1016.82 1017.11 1017.31 1017.41 1017.42 1017.36 1017.25 1017.14 1017.04 1016.98 1016.95
1011.74 1011.66 1011.62 1011.68 1011.88 1012.23 1012.74 1013.34 1013.97 1014.53 1014.95 1015.16 1015.14 1014.92 1014.53 1014.05 1013.57 1013.16 1012.88 1012.74 1012.76 1012.90 1013.13 1013.40 1013.69 1013.96 1014.23 1014.50 1014.79 1015.10 1015.45 1015.82 1016.18 1016.52 1016.80 1017.01 1017.12 1017.15 1017.11 1017.03 1016.94 1016.86 1016.81 1016.79
1011.71 1011.59 1011.54 1011.61 1011.84 1012.24 1012.79 1013.43 1014.07 1014.62 1015.00 1015.13 1015.02 1014.67 1014.15 1013.55 1012.96 1012.46 1012.13 1011.99 1012.03 1012.22 1012.53 1012.89 1013.27 1013.63 1013.96 1014.27 1014.57 1014.88 1015.21 1015.54 1015.88 1016.20 1016.46 1016.66 1016.79 1016.83 1016.81 1016.75 1016.67 1016.61 1016.56 1016.54
1011.71 1011.58 1011.53 1011.61 1011.85 1012.27 1012.83 1013.47 1014.10 1014.61 1014.93 1015.00 1014.80 1014.36 1013.75 1013.06 1012.40 1011.86 1011.50 1011.36 1011.43 1011.68 1012.05 1012.49 1012.94 1013.37 1013.75 1014.08 1014.39 1014.68 1014.97 1015.27 1015.56 1015.84 1016.09 1016.28 1016.40 1016.45 1016.44 1016.39 1016.33 1016.26 1016.20 1016.17
1011.72 1011.61 1011.56 1011.64 1011.88 1012.29 1012.83 1013.43 1014.01 1014.46 1014.72 1014.72 1014.46 1013.97 1013.32 1012.59 1011.91 1011.36 1011.01 1010.89 1010.99 1011.28 1011.71 1012.21 1012.70 1013.17 1013.57 1013.91 1014.21 1014.47 1014.72 1014.97 1015.22 1015.46 1015.68 1015.85 1015.96 1016.01 1016.01 1015.96 1015.89 1015.82 1015.76 1015.71
1011.71 1011.62 1011.60 1011.68 1011.90 1012.27 1012.74 1013.27 1013.77 1014.15 1014.33 1014.29 1013.99 1013.49 1012.84 1012.13 1011.48 1010.96 1010.65 1010.56 1010.70 1011.03 1011.48 1012.00 1012.52 1013.00 1013.40 1013.74 1014.01 1014.24 1014.46 1014.66 1014.87 1015.06 1015.24 1015.39 1015.48 1015.52 1015.52 1015.47 1015.40 1015.32 1015.25 1015.19
1011.66 1011.63 1011.63 1011.72 1011.91 1012.21 1012.59 1013.01 1013.40 1013.68 1013.79 1013.70 1013.40 1012.91 1012.31 1011.67 1011.08 1010.64 1010.38 1010.34 1010.51 1010.85 1011.32 1011.83 1012.35 1012.81 1013.20 1013.52 1013.77 1013.98 1014.16 1014.33 1014.49 1014.66 1014.80 1014.92 1014.99 1015.02 1014.99 1014.94 1014.86 1014.78 1014.71 1014.65
1011.59 1011.63 1011.68 1011.76 1011.90 1012.12 1012.39 1012.68 1012.94 1013.10 1013.14 1013.00 1012.70 1012.26 1011.73 1011.18 1010.69 1010.34 1010.15 1010.16 1010.35 1010.70 1011.15 1011.64 1012.12 1012.56 1012.93 1013.23 1013.46 1013.65 1013.82 1013.97 1014.11 1014.25 1014.36 1014.45 1014.50 1014.51 1014.47 1014.41 1014.33 1014.25 1014.18 1014.13
1011.53 1011.65 1011.74 1011.82 1011.92 1012.04 1012.18 1012.32 1012.43 1012.47 1012.41 1012.23 1011.94 1011.54 1011.10 1010.65 1010.28 1010.01 1009.90 1009.96 1010.16 1010.50 1010.91 1011.36 1011.81 1012.21 1012.55 1012.84 1013.07 1013.26 1013.42 1013.58 1013.72 1013.84 1013.94 1014.01 1014.04 1014.03 1013.98 1013.91 1013.82 1013.75 1013.69 1013.66
1011.53 1011.72 1011.84 1011.92 1011.96 1011.98 1011.98 1011.97 1011.93 1011.84 1011.68 1011.45 1011.15 1010.79 1010.43 1010.08 1009.80 1009.63 1009.58 1009.67 1009.88 1010.19 1010.56 1010.96 1011.36 1011.72 1012.05 1012.33 1012.57 1012.78 1012.98 1013.15 1013.31 1013.44 1013.55 1013.61 1013.62 1013.59 1013.53 1013.44 1013.36 1013.28 1013.24 1013.22
1011.59 1011.83 1011.97 1012.03 1012.02 1011.94 1011.82 1011.65 1011.46 1011.23 1010.97 1010.68 1010.36 1010.04 1009.73 1009.46 1009.27 1009.16 1009.16 1009.26 1009.46 1009.74 1010.06 1010.41 1010.77 1011.10 1011.42 1011.71 1011.98 1012.24 1012.47 1012.69 1012.89 1013.05 1013.17 1013.23 1013.24 1013.20 1013.12 1013.03 1012.93 1012.86 1012.81 1012.80
1011.68 1011.95 1012.10 1012.14 1012.07 1011.91 1011.67 1011.37 1011.04 1010.69 1010.33 1009.97 1009.62 1009.30 1009.03 1008.81 1008.67 1008.60 1008.63 1008.73 1008.91 1009.15 1009.42 1009.73 1010.04 1010.36 1010.68 1011.00 1011.31 1011.62 1011.92 1012.20 1012.45 1012.66 1012.80 1012.88 1012.89 1012.84 1012.75 1012.64 1012.53 1012.45 1012.39 1012.38
1011.75 1012.02 1012.17 1012.18 1012.07 1011.83 1011.50 1011.10 1010.67 1010.21 1009.76 1009.34 1008.96 1008.63 1008.36 1008.16 1008.04 1007.99 1008.01 1008.10 1008.25 1008.44 1008.67 1008.94 1009.22 1009.53 1009.86 1010.21 1010.58 1010.96 1011.33 1011.69 1012.00 1012.25 1012.44 1012.54 1012.55 1012.50 1012.40 1012.27 1012.14 1012.03 1011.95 1011.91
1011.72 1011.97 1012.10 1012.10 1011.95 1011.68 1011.30 1010.84 1010.33 1009.81 1009.30 1008.82 1008.40 1008.04 1007.76 1007.56 1007.43 1007.37 1007.37 1007.43 1007.54 1007.69 1007.88 1008.11 1008.37 1008.68 1009.02 1009.41 1009.83 1010.27 1010.72 1011.14 1011.52 1011.83 1012.05 1012.18 1012.21 1012.16 1012.04 1011.89 1011.73 1011.59 1011.47 1011.40
1011.55 1011.77 1011.88 1011.86 1011.71 1011.43 1011.04 1010.57 1010.04 1009.48 1008.94 1008.43 1007.98 1007.60 1007.28 1007.05 1006.89 1006.80 1006.77 1006.79 1006.85 1006.96 1007.11 1007.31 1007.55 1007.86 1008.22 1008.64 1009.10 1009.59 1010.09 1010.58 1011.01 1011.37 1011.63 1011.78 1011.82 1011.77 1011.64 1011.47 1011.28 1011.10 1010.94 1010.82
1011.22 1011.41 1011.50 1011.49 1011.36 1011.12 1010.76 1010.31 1009.81 1009.27 1008.73 1008.21 1007.74 1007.32 1006.98 1006.70 1006.50 1006.36 1006.28 1006.24 1006.26 1006.33 1006.44 1006.61 1006.84 1007.13 1007.50 1007.93 1008.42 1008.94 1009.48 1010.00 1010.47 1010.86 1011.15 1011.32 1011.38 1011.33 1011.19 1011.00 1010.78 1010.56 1010.36 1010.20
1010.77 1010.93 1011.03 1011.05 1010.97 1010.79 1010.51 1010.13 1009.68 1009.19 1008.68 1008.17 1007.69 1007.25 1006.86 1006.55 1006.29 1006.09 1005.95 1005.87 1005.84 1005.86 1005.93 1006.07 1006.27 1006.55 1006.90 1007.33 1007.81 1008.34 1008.89 1009.42 1009.90 1010.31 1010.61 1010.79 1010.86 1010.81 1010.66 1010.45 1010.21 1009.96 1009.74 1009.54
1010.29 1010.45 1010.58 1010.64 1010.64 1010.54 1010.35 1010.07 1009.71 1009.28 1008.82 1008.33 1007.85 1007.39 1006.97 1006.60 1006.29 1006.03 1005.84 1005.70 1005.62 1005.60 1005.63 1005.73 1005.90 1006.14 1006.46 1006.85 1007.31 1007.80 1008.32 1008.83 1009.30 1009.69 1009.99 1010.18 1010.24 1010.20 1010.05 1009.84 1009.58 1009.32 1009.08 1008.87
1009.90 1010.08 1010.25 1010.38 1010.45 1010.45 1010.37 1010.19 1009.91 1009.56 1009.15 1008.69 1008.21 1007.73 1007.28 1006.86 1006.50 1006.19 1005.94 1005.75 1005.63 1005.56 1005.55 1005.61 1005.73 1005.92 1006.18 1006.51 1006.90 1007.33 1007.79 1008.24 1008.66 1009.02 1009.30 1009.47 1009.54 1009.49 1009.35 1009.14 1008.90 1008.64 1008.39 1008.18
1009.72 1009.94 1010.16 1010.35 1010.50 1010.59 1010.59 1010.50 1010.30 1010.01 1009.64 1009.20 1008.73 1008.23 1007.74 1007.29 1006.88 1006.53 1006.23 1006.01 1005.84 1005.74 1005.69 1005.69 1005.76 1005.88 1006.06 1006.29 1006.58 1006.91 1007.28 1007.64 1007.99 1008.30 1008.53 1008.69 1008.75 1008.71 1008.58 1008.39 1008.16 1007.92 1007.69 1007.50
1009.83 1010.09 1010.35 1010.60 1010.81 1010.95 1011.02 1010.98 1010.84 1010.59 1010.24 1009.81 1009.33 1008.82 1008.31 1007.82 1007.38 1007.00 1006.68 1006.42 1006.23 1006.09 1006.00 1005.95 1005.94 1005.97 1006.05 1006.17 1006.34 1006.54 1006.78 1007.04 1007.29 1007.53 1007.71 1007.83 1007.88 1007.85 1007.75 1007.58 1007.38 1007.17 1006.97 1006.81
Thickness
5780 5773 5770 5772 5773 5768 5765 5758 5752 5750 5753 5749 5742 5738 5736 5735 5732 5729 5727 5726 5725 5727 5731 5731 5730 5730 5728 5725 5722 5719 5716 5713 5710 5709 5706 5704 5702 5699 5698 5695 5690 5688 5687 5687
5775 5772 5780 5780 5775 5768 5762 5755 5752 5747 5748 5745 5738 5733 5732 5730 5726 5726 5723 5721 5723 5725 5727 5726 5727 5727 5726 5722 5720 5717 5713 5711 5708 5705 5701 5697 5694 5693 5691 5688 5684 5682 5681 5680
5772 5781 5784 5776 5770 5765 5762 5758 5754 5746 5742 5742 5737 5728 5727 5728 5727 5725 5724 5724 5726 5726 5726 5725 5725 5726 5725 5722 5720 5718 5714 5710 5706 5701 5699 5695 5691 5690 5690 5686 5683 5679 5676 5675
5782 5787 5780 5774 5770 5768 5759 5765 5758 5749 5742 5741 5739 5727 5728 5730 5725 5723 5725 5727 5728 5729 5729 5728 5727 5727 5726 5725 5723 5718 5713 5708 5704 5699 5696 5692 5688 5685 5683 5680 5679 5675 5673 5671
5781 5783 5776 5770 5770 5771 5763 5766 5760 5754 5749 5743 5742 5737 5733 5736 5729 5731 5733 5734 5734 5734 5733 5731 5731 5731 5730 5728 5724 5720 5713 5707 5702 5698 5694 5689 5687 5685 5683 5679 5676 5672 5673 5669
5784 5788 5785 5778 5776 5774 5766 5761 5756 5756 5756 5736 5735 5735 5731 5742 5740 5741 5741 5741 5739 5738 5737 5736 5735 5734 5731 5728 5724 5719 5712 5706 5702 5697 5693 5687 5684 5680 5677 5674 5673 5673 5673 5670
5774 5780 5784 5783 5769 5765 5764 5755 5747 5743 5740 5735 5737 5736 5739 5749 5752 5750 5747 5745 5744 5742 5740 5738 5735 5733 5730 5727 5723 5719 5712 5706 5702 5697 5692 5688 5683 5679 5675 5673 5673 5669 5670 5669
5764 5764 5778 5780 5774 5767 5763 5760 5740 5727 5732 5740 5738 5736 5749 5758 5758 5756 5755 5752 5748 5746 5745 5743 5740 5736 5731 5727 5723 5718 5712 5706 5701 5697 5692 5687 5683 5681 5679 5675 5670 5668 5666 5665
5768 5764 5779 5780 5780 5774 5762 5762 5766 5750 5743 5737 5741 5745 5756 5759 5755 5755 5754 5752 5750 5749 5748 5745 5742 5738 5733 5728 5723 5718 5712 5706 5701 5697 5692 5686 5682 5679 5676 5672 5668 5667 5664 5661
5775 5760 5774 5775 5776 5769 5771 5765 5756 5748 5728 5729 5736 5739 5745 5751 5753 5755 5754 5753 5753 5751 5749 5746 5742 5738 5734 5729 5723 5718 5711 5705 5701 5696 5691 5688 5683 5678 5673 5670 5667 5663 5659 5656
5777 5760 5766 5769 5763 5764 5757 5755 5754 5753 5745 5730 5729 5743 5765 5761 5762 5760 5759 5759 5757 5754 5751 5747 5742 5739 5734 5728 5722 5715 5709 5703 5699 5694 5689 5684 5680 5677 5673 5668 5664 5661 5657 5652
5773 5766 5757 5764 5772 5773 5767 5761 5754 5740 5737 5739 5736 5748 5773 5771 5769 5766 5765 5764 5761 5756 5753 5748 5742 5736 5731 5726 5721 5715 5709 5703 5698 5693 5688 5682 5678 5674 5670 5667 5663 5658 5653 5649
5768 5756 5744 5748 5753 5761 5761 5759 5757 5752 5743 5740 5735 5749 5770 5769 5766 5766 5764 5763 5758 5753 5749 5745 5740 5734 5730 5725 5720 5715 5709 5704 5699 5693 5686 5681 5676 5672 5668 5664 5660 5655 5650 5645
5769 5757 5747 5738 5746 5757 5754 5756 5754 5747 5743 5743 5746 5752 5764 5765 5763 5765 5763 5760 5756 5750 5746 5742 5737 5732 5729 5724 5718 5712 5707 5702 5697 5691 5685 5679 5674 5670 5666 5661 5656 5651 5646 5641
5764 5754 5756 5760 5764 5760 5755 5755 5755 5747 5747 5743 5749 5754 5761 5766 5765 5765 5763 5758 5752 5747 5743 5740 5736 5732 5726 5721 5715 5710 5705 5699 5693 5687 5682 5677 5673 5668 5663 5658 5652 5647 5641 5636
5758 5750 5753 5751 5760 5758 5751 5755 5756 5753 5752 5750 5751 5753 5771 5770 5766 5762 5759 5755 5749 5746 5744 5741 5736 5732 5726 5720 5714 5709 5703 5697 5691 5684 5679 5675 5670 5664 5659 5654 5648 5642 5636 5630
5757 5746 5740 5740 5756 5749 5740 5756 5757 5756 5759 5754 5749 5758 5767 5762 5759 5759 5758 5755 5751 5748 5746 5742 5738 5733 5727 5722 5715 5707 5701 5695 5688 5681 5676 5672 5666 5661 5655 5649 5643 5637 5630 5624
5748 5742 5741 5741 5739 5719 5752 5774 5768 5759 5760 5764 5761 5763 5763 5761 5761 5761 5761 5757 5753 5750 5747 5744 5740 5735 5729 5723 5716 5707 5700 5692 5685 5679 5674 5669 5663 5657 5651 5644 5637 5630 5624 5617
5750 5739 5737 5734 5730 5735 5758 5767 5764 5755 5754 5768 5763 5762 5764 5763 5757 5760 5764 5760 5756 5754 5750 5747 5743 5739 5731 5722 5714 5705 5697 5690 5683 5677 5671 5666 5659 5652 5645 5637 5630 5624 5617 5610
5741 5738 5735 5728 5717 5717 5747 5764 5769 5757 5744 5766 5763 5759 5761 5754 5744 5755 5768 5764 5758 5755 5751 5747 5743 5736 5727 5719 5711 5701 5694 5687 5680 5674 5668 5661 5653 5645 5638 5631 5623 5617 5610 5604
5732 5726 5726 5722 5718 5733 5754 5761 5758 5733 5736 5757 5760 5757 5757 5752 5752 5761 5765 5761 5757 5753 5749 5744 5737 5730 5724 5716 5706 5696 5690 5683 5677 5671 5663 5655 5647 5639 5632 5625 5617 5611 5604 5599
5736 5732 5725 5724 5716 5725 5749 5751 5741 5738 5748 5750 5750 5752 5752 5752 5755 5756 5755 5752 5749 5746 5743 5738 5730 5725 5719 5711 5702 5692 5685 5680 5673 5664 5656 5648 5641 5634 5628 5620 5612 5605 5598 5593
5739 5741 5737 5733 5732 5741 5744 5739 5738 5738 5737 5739 5742 5745 5746 5746 5747 5748 5747 5746 5743 5740 5736 5732 5725 5718 5713 5705 5697 5688 5682 5674 5666 5657 5649 5642 5635 5628 5621 5613 5607 5601 5596 5591
5741 5736 5732 5728 5736 5735 5730 5727 5726 5726 5726 5730 5733 5736 5738 5736 5737 5737 5736 5734 5732 5730 5727 5723 5717 5711 5705 5699 5692 5686 5678 5668 5659 5651 5643 5637 5629 5623 5616 5609 5604 5598 5594 5589
5728 5727 5724 5719 5726 5725 5717 5710 5712 5714 5716 5718 5721 5723 5723 5723 5722 5722 5721 5719 5718 5716 5715 5712 5706 5701 5697 5692 5686 5679 5671 5661 5652 5644 5637 5631 5625 5620 5611 5604 5599 5593 5589 5583
5718 5715 5712 5711 5705 5705 5697 5698 5701 5701 5701 5703 5704 5705 5707 5708 5706 5707 5706 5704 5703 5701 5700 5697 5694 5690 5687 5682 5677 5671 5664 5656 5646 5637 5631 5627 5621 5615 5608 5601 5596 5591 5582 5575